sat.trackr.live / text

‹ back to catalog

KUIPER-00170

NORAD 65783 · 2025-217X

PAYLOAD ACTIVE UNKNOWN

§ Identity

Operator
Country
US
Launch date
2025-09-25
Launch site
AFETR
Launch vehicle
Mass (kg)
RCS (m²)

External: N2YO · Heavens-Above · Gunter

§ Orbital elements

Epoch: 2026-09-20T06:37:17.766912Z

Period
97.30 min
Inclination
51.8993°
Eccentricity
0.0000617
Mean motion
14.79933098 rev/d
Perigee alt
629.1 km
Apogee alt
630.0 km
Semi-major
7,007.7 km
B*
2.6017e-4
RAAN
257.6069°
Arg perigee
61.9124°
Mean anomaly
298.1901°
Rev number
5,376

§ Raw data

KUIPER-001701 65783U 25217X   26263.27590008  .00001763  00000+0  26017-3 0  99912 65783  51.8993 257.6069 0000617  61.9124 298.1901 14.79933098 53762

JSON: /api/v1/satellites/65783 · /tle

For live sub-satellite position, see the globe view (requires WebGL).

§ Visibility from observer

Set your observer location to see the next 7 days of passes ≥ 10°. The values pass through the URL so the page stays shareable.

No JS? Fill the form by hand. The geolocation button needs JavaScript.